When you browse on this site, cookies collect data to enhance your experience and personalize the content and advertising you see.
Visit our Privacy Policy to learn more. By continuing to use the site, you agree to this use of cookies and data.
  • In Romania
  • List of Countries
  • For 7 days
  • Water Temperature
  • Satellite Maps
  • Weather Map
  • Weather Widgets
  • user-avatar
    Login

    Hourly Weather Nur

    Today, 20 March, Wednesday

    Time Temperature Precipitation Wind Pressure Humidity
    00:00 -5°C° 0 mm 0 mps 768 mmHg 85%
    01:00 -6°C° 0 mm 0 mps 768 mmHg 86%
    02:00 -6°C° 0 mm 0 mps 768 mmHg 86%
    03:00 -6°C° 0 mm 0 mps 767 mmHg 82%
    04:00 -6°C° 0 mm 0 mps 767 mmHg 82%
    05:00 -7°C° 0 mm 0 mps 767 mmHg 83%
    06:00 -7°C° 0 mm 0 mps 767 mmHg 84%
    07:00 -5°C° 0 mm 0 mps 767 mmHg 85%
    08:00 -3°C° 0 mm 0 mps 767 mmHg 87%
    09:00 -1°C° 0 mm 0 mps 767 mmHg 90%
    10:00 0°C° 0 mm 0 mps 767 mmHg 93%
    11:00 0°C° 0 mm 0 mps 766 mmHg 96%
    12:00 +1°C° 0 mm 0 mps 766 mmHg 99%
    13:00 +2°C° 0 mm 1 mps 766 mmHg 99%
    14:00 +2°C° 0 mm 1 mps 766 mmHg 99%
    15:00 +2°C° 0 mm 1 mps 766 mmHg 99%
    16:00 +2°C° 0 mm 1 mps 766 mmHg 99%
    17:00 +2°C° 0 mm 1 mps 766 mmHg 98%
    18:00 +2°C° 0 mm 1 mps 765 mmHg 97%
    19:00 +2°C° 0 mm 1 mps 765 mmHg 96%
    20:00 +1°C° 0 mm 1 mps 765 mmHg 96%
    21:00 +1°C° 0 mm 1 mps 765 mmHg 96%
    22:00 +1°C° 0 mm 1 mps 765 mmHg 95%
    23:00 -1°C° 0 mm 2 mps 764 mmHg 95%

    Tomorrow, 21 March, Thursday

    Time Temperature Precipitation Wind Pressure Humidity
    00:00 -1°C° 0 mm 2 mps 764 mmHg 95%
    01:00 -2°C° 0 mm 2 mps 764 mmHg 95%
    02:00 -2°C° 0 mm 2 mps 764 mmHg 95%
    03:00 -2°C° 0 mm 2 mps 764 mmHg 95%
    04:00 -2°C° 0 mm 2 mps 763 mmHg 95%
    05:00 -2°C° 0 mm 2 mps 763 mmHg 95%
    06:00 -3°C° 0 mm 2 mps 763 mmHg 95%
    07:00 -2°C° 0 mm 2 mps 763 mmHg 96%
    08:00 -2°C° 0 mm 2 mps 763 mmHg 96%
    09:00 -1°C° 0 mm 3 mps 762 mmHg 97%
    10:00 -1°C° 0 mm 2 mps 762 mmHg 98%
    11:00 -1°C° 0 mm 2 mps 762 mmHg 98%
    12:00 -1°C° 0 mm 2 mps 762 mmHg 99%
    13:00 -1°C° 0 mm 2 mps 762 mmHg 99%
    14:00 +1°C° 0 mm 2 mps 762 mmHg 99%
    15:00 +1°C° 0 mm 2 mps 761 mmHg 99%
    16:00 -1°C° 0 mm 2 mps 761 mmHg 99%
    17:00 -1°C° 0 mm 2 mps 761 mmHg 98%
    18:00 -1°C° 0 mm 2 mps 761 mmHg 97%
    19:00 -1°C° 0.1 mm 2 mps 761 mmHg 97%
    20:00 -1°C° 0.1 mm 2 mps 761 mmHg 97%
    21:00 -2°C° 0.1 mm 2 mps 761 mmHg 96%
    22:00 -2°C° 0 mm 2 mps 761 mmHg 96%
    23:00 -2°C° 0 mm 2 mps 761 mmHg 96%

    Day after tomorrow, 22 March, Friday

    Time Temperature Precipitation Wind Pressure Humidity
    00:00 -2°C° 0 mm 2 mps 760 mmHg 97%
    01:00 -2°C° 0.1 mm 2 mps 760 mmHg 97%
    02:00 -2°C° 0.1 mm 2 mps 760 mmHg 97%
    03:00 -2°C° 0.1 mm 2 mps 760 mmHg 97%
    04:00 -2°C° 0.1 mm 2 mps 760 mmHg 97%
    05:00 -2°C° 0.1 mm 2 mps 760 mmHg 97%
    06:00 -2°C° 0.1 mm 2 mps 760 mmHg 97%
    07:00 -2°C° 0 mm 2 mps 760 mmHg 97%
    08:00 -1°C° 0 mm 2 mps 760 mmHg 98%
    09:00 -1°C° 0 mm 2 mps 760 mmHg 99%
    10:00 -1°C° 0 mm 2 mps 760 mmHg 99%
    11:00 -1°C° 0 mm 2 mps 760 mmHg 99%
    12:00 +1°C° 0 mm 2 mps 760 mmHg 99%
    13:00 +1°C° 0 mm 2 mps 760 mmHg 99%
    14:00 +1°C° 0 mm 2 mps 759 mmHg 99%
    15:00 +1°C° 0 mm 2 mps 759 mmHg 99%
    16:00 -1°C° 0.1 mm 2 mps 759 mmHg 98%
    17:00 -1°C° 0.1 mm 2 mps 758 mmHg 98%
    18:00 -1°C° 0.1 mm 2 mps 758 mmHg 97%
    19:00 -1°C° 0.4 mm 2 mps 758 mmHg 97%
    20:00 -1°C° 0.4 mm 2 mps 757 mmHg 97%
    21:00 -1°C° 0.4 mm 2 mps 757 mmHg 97%
    22:00 -2°C° 0.2 mm 2 mps 757 mmHg 97%
    23:00 -2°C° 0.2 mm 2 mps 756 mmHg 97%

    23 March, Saturday

    Time Temperature Precipitation Wind Pressure Humidity
    00:00 -2°C° 0.2 mm 2 mps 756 mmHg 97%
    01:00 -2°C° 0.9 mm 2 mps 755 mmHg 97%
    02:00 -2°C° 0.9 mm 2 mps 755 mmHg 97%
    03:00 -2°C° 0.9 mm 2 mps 754 mmHg 97%
    04:00 -2°C° 0.2 mm 2 mps 754 mmHg 97%
    05:00 -2°C° 0.2 mm 2 mps 754 mmHg 97%
    06:00 -2°C° 0.2 mm 2 mps 754 mmHg 97%
    07:00 -2°C° 0.1 mm 2 mps 754 mmHg 97%
    08:00 -1°C° 0.1 mm 2 mps 754 mmHg 98%
    09:00 -1°C° 0.1 mm 3 mps 754 mmHg 99%
    10:00 -1°C° 0 mm 3 mps 754 mmHg 99%
    11:00 -2°C° 0 mm 4 mps 754 mmHg 99%
    12:00 -2°C° 0 mm 4 mps 754 mmHg 99%
    13:00 -2°C° 0 mm 4 mps 755 mmHg 98%
    14:00 -2°C° 0 mm 4 mps 755 mmHg 96%
    15:00 -1°C° 0 mm 3 mps 755 mmHg 95%
    16:00 -2°C° 0 mm 3 mps 755 mmHg 95%
    17:00 -2°C° 0 mm 3 mps 755 mmHg 95%
    18:00 -4°C° 0 mm 3 mps 755 mmHg 95%
    19:00 -3°C° 0 mm 2 mps 756 mmHg 96%
    20:00 -3°C° 0 mm 2 mps 756 mmHg 96%
    21:00 -3°C° 0 mm 2 mps 756 mmHg 97%
    22:00 -3°C° 0 mm 2 mps 756 mmHg 96%
    23:00 -3°C° 0 mm 2 mps 756 mmHg 96%

    24 March, Sunday

    Time Temperature Precipitation Wind Pressure Humidity
    00:00 -4°C° 0 mm 2 mps 756 mmHg 96%
    01:00 -4°C° 0 mm 2 mps 755 mmHg 96%
    02:00 -4°C° 0 mm 2 mps 755 mmHg 95%
    03:00 -4°C° 0 mm 2 mps 755 mmHg 95%
    04:00 -4°C° 0 mm 2 mps 754 mmHg 95%
    05:00 -6°C° 0 mm 3 mps 754 mmHg 95%
    06:00 -6°C° 0 mm 3 mps 754 mmHg 94%
    07:00 -5°C° 0 mm 3 mps 753 mmHg 94%
    08:00 -5°C° 0 mm 3 mps 753 mmHg 93%
    09:00 -4°C° 0 mm 3 mps 752 mmHg 92%
    10:00 -4°C° 0 mm 4 mps 752 mmHg 93%
    11:00 -3°C° 0 mm 4 mps 751 mmHg 94%
    12:00 -2°C° 0 mm 4 mps 750 mmHg 94%
    13:00 -2°C° 0.1 mm 4 mps 750 mmHg 94%
    14:00 -2°C° 0.1 mm 5 mps 749 mmHg 93%
    15:00 -2°C° 0.1 mm 5 mps 748 mmHg 93%
    16:00 -2°C° 0.2 mm 4 mps 748 mmHg 93%
    17:00 -2°C° 0.2 mm 4 mps 748 mmHg 93%
    18:00 -2°C° 0.2 mm 4 mps 747 mmHg 93%
    19:00 -1°C° 0.2 mm 3 mps 747 mmHg 94%
    20:00 -1°C° 0.2 mm 3 mps 747 mmHg 95%
    21:00 -2°C° 0.2 mm 2 mps 747 mmHg 96%
    22:00 -2°C° 0.1 mm 2 mps 746 mmHg 95%
    23:00 -3°C° 0.1 mm 2 mps 746 mmHg 95%

    25 March, Monday

    Time Temperature Precipitation Wind Pressure Humidity
    00:00 -3°C° 0.1 mm 2 mps 746 mmHg 94%
    01:00 -3°C° 0 mm 2 mps 746 mmHg 93%
    02:00 -5°C° 0 mm 3 mps 746 mmHg 92%
    03:00 -5°C° 0 mm 3 mps 746 mmHg 91%
    04:00 -6°C° 0 mm 3 mps 746 mmHg 91%
    05:00 -5°C° 0 mm 2 mps 747 mmHg 91%
    06:00 -5°C° 0 mm 2 mps 747 mmHg 91%
    07:00 -5°C° 0 mm 3 mps 747 mmHg 91%
    08:00 -4°C° 0 mm 3 mps 747 mmHg 90%
    09:00 -2°C° 0 mm 3 mps 747 mmHg 89%
    10:00 -1°C° 0 mm 3 mps 747 mmHg 90%
    11:00 -1°C° 0 mm 3 mps 748 mmHg 91%
    12:00 -1°C° 0 mm 4 mps 748 mmHg 92%
    13:00 -1°C° 0 mm 4 mps 748 mmHg 91%
    14:00 0°C° 0 mm 3 mps 748 mmHg 90%
    15:00 0°C° 0 mm 3 mps 748 mmHg 89%
    16:00 0°C° 0.1 mm 3 mps 749 mmHg 90%
    17:00 -1°C° 0.1 mm 4 mps 749 mmHg 90%
    18:00 -1°C° 0.1 mm 4 mps 750 mmHg 90%
    19:00 -2°C° 0 mm 4 mps 751 mmHg 88%
    20:00 -3°C° 0 mm 4 mps 751 mmHg 86%
    21:00 -3°C° 0 mm 4 mps 752 mmHg 85%
    22:00 -4°C° 0 mm 4 mps 753 mmHg 85%
    23:00 -4°C° 0 mm 4 mps 753 mmHg 85%
    Show more